QPF
0.01 0.01 0.01 0.01 0.01 0.01 0.02 0.01 0.01 0.01 0.01 0.01 0.01 0.00 0.00 0.01 0.01 0.02 0.03 0.01 0.00 0.00 0.01 0.01 0.03 0.03 0.02 0.05 0.06 0.07 0.06 0.04 0.03 0.05 0.07 0.07 0.06 0.04 0.04 0.06 0.08 0.08 0.07 0.05 0.05 0.06 0.07 0.10 0.12
0.01 0.01 0.01 0.01 0.01 0.01 0.01 0.00 0.00 0.01 0.01 0.02 0.01 0.00 0.00 0.01 0.01 0.02 0.03 0.01 0.00 0.00 0.01 0.01 0.04 0.02 0.02 0.04 0.05 0.05 0.05 0.05 0.06 0.06 0.06 0.08 0.08 0.07 0.08 0.09 0.10 0.09 0.07 0.05 0.06 0.08 0.10 0.12 0.12
0.01 0.01 0.01 0.00 0.01 0.01 0.02 0.01 0.01 0.01 0.01 0.00 0.01 0.01 0.01 0.01 0.01 0.03 0.03 0.01 0.01 0.02 0.03 0.03 0.05 0.03 0.03 0.04 0.05 0.05 0.05 0.05 0.06 0.07 0.07 0.08 0.10 0.11 0.12 0.14 0.12 0.09 0.08 0.10 0.11 0.10 0.15 0.20 0.16
0.01 0.01 0.01 0.01 0.01 0.01 0.01 0.01 0.01 0.01 0.00 0.00 0.00 0.01 0.01 0.02 0.02 0.03 0.02 0.01 0.01 0.02 0.02 0.03 0.06 0.04 0.04 0.04 0.04 0.05 0.05 0.04 0.04 0.06 0.07 0.08 0.09 0.11 0.12 0.12 0.11 0.09 0.08 0.12 0.22 0.21 0.21 0.23 0.24
0.01 0.02 0.01 0.01 0.00 0.00 0.01 0.01 0.01 0.01 0.00 0.00 0.00 0.00 0.01 0.02 0.02 0.01 0.02 0.01 0.01 0.02 0.02 0.03 0.06 0.06 0.07 0.06 0.05 0.05 0.03 0.04 0.04 0.04 0.05 0.05 0.06 0.08 0.09 0.10 0.11 0.09 0.07 0.12 0.25 0.32 0.33 0.31 0.32
0.01 0.01 0.01 0.01 0.00 0.00 0.01 0.01 0.01 0.01 0.00 0.00 0.01 0.00 0.01 0.02 0.02 0.03 0.03 0.03 0.02 0.03 0.03 0.03 0.04 0.04 0.06 0.07 0.05 0.04 0.05 0.05 0.04 0.03 0.03 0.04 0.06 0.08 0.10 0.08 0.09 0.08 0.07 0.09 0.14 0.17 0.20 0.24 0.27
0.00 0.01 0.01 0.01 0.01 0.01 0.01 0.00 0.00 0.00 0.00 0.00 0.00 0.00 0.01 0.02 0.03 0.04 0.04 0.04 0.03 0.02 0.02 0.03 0.03 0.03 0.04 0.04 0.05 0.04 0.03 0.05 0.05 0.03 0.03 0.03 0.05 0.06 0.07 0.05 0.07 0.09 0.09 0.08 0.10 0.10 0.13 0.17 0.17
0.00 0.01 0.00 0.00 0.01 0.01 0.00 0.00 0.00 0.00 0.01 0.00 0.00 0.00 0.01 0.01 0.03 0.03 0.02 0.02 0.02 0.02 0.01 0.01 0.02 0.03 0.03 0.03 0.04 0.04 0.04 0.04 0.04 0.04 0.03 0.04 0.04 0.03 0.03 0.03 0.07 0.09 0.10 0.09 0.09 0.09 0.10 0.15 0.17
0.01 0.01 0.01 0.00 0.00 0.01 0.00 0.00 0.01 0.01 0.01 0.01 0.00 0.00 0.01 0.01 0.01 0.01 0.01 0.01 0.01 0.02 0.02 0.01 0.01 0.01 0.01 0.02 0.03 0.03 0.04 0.03 0.02 0.02 0.01 0.02 0.01 0.01 0.02 0.03 0.05 0.07 0.07 0.07 0.08 0.08 0.07 0.08 0.13
0.01 0.01 0.00 0.00 0.00 0.01 0.00 0.00 0.01 0.01 0.01 0.01 0.01 0.01 0.00 0.00 0.00 0.01 0.01 0.01 0.02 0.04 0.05 0.04 0.02 0.01 0.01 0.01 0.02 0.02 0.03 0.02 0.01 0.01 0.01 0.01 0.02 0.02 0.02 0.02 0.03 0.04 0.05 0.04 0.04 0.04 0.05 0.04 0.08
0.01 0.01 0.00 0.00 0.00 0.01 0.01 0.01 0.01 0.01 0.01 0.01 0.01 0.01 0.01 0.00 0.00 0.00 0.00 0.01 0.02 0.03 0.04 0.03 0.02 0.01 0.01 0.01 0.01 0.01 0.01 0.01 0.01 0.01 0.01 0.01 0.01 0.00 0.00 0.01 0.00 0.01 0.02 0.02 0.02 0.02 0.02 0.03 0.04
0.01 0.01 0.00 0.00 0.01 0.01 0.01 0.01 0.01 0.01 0.01 0.01 0.01 0.01 0.00 0.00 0.00 0.00 0.00 0.00 0.00 0.00 0.01 0.00 0.01 0.01 0.01 0.01 0.00 0.00 0.00 0.01 0.00 0.00 0.00 0.00 0.00 0.00 0.00 0.00 0.01 0.00 0.01 0.01 0.01 0.01 0.02 0.02 0.02
0.02 0.02 0.01 0.01 0.01 0.01 0.01 0.01 0.01 0.01 0.01 0.01 0.01 0.01 0.00 0.00 0.01 0.01 0.01 0.01 0.00 0.00 0.00 0.01 0.01 0.00 0.00 0.00 0.00 0.00 0.00 0.00 0.00 0.00 0.00 0.00 0.00 0.00 0.00 0.00 0.00 0.00 0.00 0.01 0.01 0.01 0.01 0.01 0.01
0.02 0.01 0.01 0.01 0.02 0.02 0.01 0.01 0.01 0.01 0.01 0.01 0.01 0.00 0.00 0.00 0.00 0.00 0.01 0.01 0.00 0.00 0.00 0.01 0.00 0.00 0.00 0.00 0.00 0.00 0.00 0.00 0.00 0.00 0.01 0.00 0.00 0.00 0.00 0.00 0.00 0.00 0.00 0.00 0.00 0.00 0.01 0.01 0.02
0.01 0.01 0.01 0.01 0.01 0.01 0.00 0.01 0.01 0.01 0.01 0.01 0.00 0.00 0.01 0.00 0.00 0.01 0.01 0.01 0.01 0.00 0.00 0.00 0.00 0.00 0.00 0.00 0.00 0.00 0.00 0.00 0.00 0.00 0.00 0.00 0.00 0.00 0.00 0.00 0.01 0.00 0.01 0.01 0.00 0.00 0.01 0.00 0.01
0.01 0.01 0.01 0.01 0.00 0.00 0.01 0.01 0.00 0.00 0.01 0.01 0.01 0.01 0.01 0.00 0.01 0.01 0.00 0.00 0.01 0.00 0.00 0.00 0.00 0.00 0.00 0.00 0.00 0.00 0.00 0.00 0.00 0.00 0.00 0.00 0.00 0.00 0.00 0.00 0.00 0.00 0.01 0.01 0.01 0.01 0.01 0.00 0.01
0.01 0.01 0.01 0.01 0.00 0.00 0.00 0.00 0.00 0.00 0.00 0.00 0.01 0.01 0.02 0.01 0.01 0.01 0.00 0.00 0.01 0.01 0.01 0.01 0.00 0.01 0.00 0.00 0.00 0.00 0.00 0.00 0.00 0.00 0.00 0.00 0.00 0.00 0.00 0.00 0.00 0.00 0.00 0.01 0.01 0.01 0.01 0.01 0.01
0.01 0.01 0.01 0.00 0.00 0.00 0.00 0.00 0.01 0.00 0.00 0.00 0.00 0.01 0.01 0.01 0.01 0.01 0.00 0.00 0.01 0.00 0.00 0.01 0.01 0.00 0.00 0.00 0.00 0.00 0.00 0.00 0.00 0.00 0.00 0.00 0.00 0.00 0.00 0.00 0.00 0.00 0.01 0.01 0.01 0.01 0.01 0.01 0.01
0.01 0.01 0.00 0.00 0.00 0.00 0.00 0.00 0.00 0.00 0.00 0.00 0.00 0.00 0.01 0.00 0.01 0.01 0.00 0.00 0.00 0.00 0.00 0.00 0.01 0.01 0.01 0.00 0.00 0.00 0.00 0.00 0.00 0.00 0.00 0.00 0.00 0.00 0.00 0.00 0.00 0.00 0.00 0.00 0.00 0.00 0.01 0.01 0.01
0.01 0.01 0.01 0.00 0.00 0.00 0.00 0.00 0.00 0.00 0.00 0.00 0.00 0.00 0.01 0.01 0.01 0.00 0.00 0.00 0.00 0.00 0.00 0.00 0.00 0.01 0.01 0.00 0.00 0.00 0.00 0.00 0.00 0.00 0.00 0.00 0.00 0.00 0.00 0.00 0.00 0.00 0.00 0.00 0.00 0.00 0.01 0.01 0.01
0.01 0.01 0.01 0.01 0.01 0.01 0.00 0.00 0.00 0.00 0.00 0.00 0.00 0.00 0.00 0.01 0.01 0.01 0.00 0.00 0.00 0.00 0.00 0.00 0.00 0.00 0.01 0.00 0.00 0.00 0.00 0.00 0.00 0.00 0.01 0.00 0.00 0.00 0.00 0.00 0.00 0.00 0.00 0.00 0.00 0.00 0.01 0.01 0.01
0.01 0.01 0.00 0.01 0.02 0.03 0.01 0.01 0.00 0.00 0.00 0.00 0.00 0.00 0.00 0.00 0.01 0.01 0.01 0.01 0.00 0.01 0.00 0.00 0.00 0.00 0.01 0.01 0.01 0.01 0.01 0.00 0.00 0.00 0.01 0.00 0.00 0.00 0.00 0.00 0.00 0.00 0.00 0.01 0.01 0.01 0.01 0.01 0.01
0.01 0.00 0.01 0.01 0.02 0.03 0.02 0.02 0.01 0.00 0.00 0.00 0.00 0.00 0.00 0.00 0.00 0.01 0.01 0.01 0.01 0.01 0.01 0.01 0.01 0.01 0.01 0.02 0.02 0.01 0.01 0.01 0.01 0.01 0.01 0.01 0.01 0.00 0.00 0.00 0.00 0.00 0.00 0.01 0.01 0.01 0.01 0.01 0.02
0.01 0.01 0.01 0.01 0.02 0.03 0.02 0.02 0.01 0.00 0.00 0.00 0.00 0.00 0.00 0.00 0.00 0.00 0.00 0.01 0.01 0.02 0.02 0.01 0.01 0.01 0.01 0.01 0.01 0.02 0.02 0.01 0.01 0.01 0.01 0.01 0.01 0.00 0.00 0.00 0.01 0.01 0.01 0.01 0.02 0.01 0.02 0.03 0.03
0.01 0.02 0.02 0.01 0.02 0.01 0.01 0.01 0.01 0.00 0.00 0.00 0.00 0.00 0.01 0.01 0.00 0.00 0.00 0.00 0.01 0.01 0.01 0.01 0.01 0.01 0.01 0.01 0.01 0.01 0.02 0.01 0.01 0.01 0.01 0.01 0.01 0.00 0.00 0.00 0.01 0.01 0.01 0.01 0.01 0.01 0.02 0.02 0.03
0.01 0.01 0.01 0.01 0.01 0.01 0.00 0.01 0.01 0.00 0.00 0.00 0.00 0.00 0.01 0.00 0.00 0.00 0.00 0.01 0.02 0.02 0.02 0.03 0.03 0.02 0.02 0.02 0.02 0.02 0.01 0.02 0.01 0.00 0.00 0.00 0.00 0.00 0.00 0.00 0.00 0.01 0.00 0.00 0.00 0.01 0.01 0.01 0.02
0.01 0.01 0.00 0.00 0.00 0.00 0.00 0.00 0.00 0.00 0.00 0.00 0.00 0.00 0.00 0.00 0.00 0.00 0.00 0.01 0.01 0.02 0.03 0.03 0.05 0.05 0.04 0.02 0.02 0.02 0.01 0.01 0.00 0.00 0.00 0.00 0.00 0.00 0.00 0.00 0.00 0.01 0.01 0.01 0.01 0.01 0.01 0.01 0.01
0.00 0.01 0.00 0.00 0.00 0.01 0.01 0.00 0.00 0.00 0.00 0.00 0.00 0.00 0.00 0.00 0.00 0.00 0.00 0.01 0.02 0.03 0.03 0.04 0.06 0.06 0.06 0.04 0.02 0.02 0.02 0.01 0.00 0.00 0.00 0.00 0.00 0.00 0.00 0.00 0.00 0.00 0.00 0.00 0.01 0.01 0.01 0.00 0.00
0.01 0.00 0.00 0.00 0.00 0.01 0.01 0.01 0.00 0.00 0.00 0.00 0.00 0.00 0.00 0.00 0.00 0.00 0.01 0.01 0.02 0.03 0.04 0.05 0.06 0.06 0.08 0.08 0.03 0.02 0.02 0.01 0.00 0.00 0.00 0.00 0.00 0.00 0.00 0.00 0.00 0.00 0.00 0.00 0.00 0.00 0.01 0.01 0.01
0.00 0.01 0.01 0.01 0.01 0.00 0.00 0.00 0.00 0.00 0.00 0.00 0.00 0.00 0.00 0.00 0.00 0.01 0.01 0.01 0.01 0.02 0.03 0.04 0.04 0.04 0.07 0.09 0.05 0.03 0.02 0.01 0.00 0.01 0.01 0.00 0.00 0.00 0.00 0.00 0.00 0.00 0.00 0.00 0.00 0.00 0.00 0.01 0.01
MSLP
1008.69 1009.39 1010.35 1011.49 1012.69 1013.82 1014.76 1015.46 1015.89 1016.06 1016.05 1015.94 1015.81 1015.71 1015.65 1015.64 1015.62 1015.56 1015.44 1015.23 1014.97 1014.69 1014.44 1014.25 1014.15 1014.13 1014.16 1014.19 1014.19 1014.12 1013.96 1013.74 1013.49 1013.24 1013.05 1012.95 1012.95 1013.05 1013.22 1013.44 1013.67 1013.88 1014.07 1014.21 1014.32 1014.39 1014.45 1014.51 1014.57
1009.09 1009.97 1011.08 1012.31 1013.52 1014.59 1015.42 1015.95 1016.18 1016.17 1015.99 1015.75 1015.53 1015.39 1015.33 1015.34 1015.36 1015.36 1015.29 1015.14 1014.94 1014.71 1014.51 1014.37 1014.32 1014.33 1014.39 1014.45 1014.46 1014.40 1014.26 1014.04 1013.80 1013.56 1013.38 1013.28 1013.27 1013.35 1013.49 1013.68 1013.88 1014.06 1014.22 1014.35 1014.45 1014.52 1014.59 1014.65 1014.72
1009.70 1010.73 1011.94 1013.19 1014.35 1015.30 1015.97 1016.31 1016.34 1016.14 1015.82 1015.47 1015.19 1015.01 1014.95 1014.98 1015.03 1015.07 1015.05 1014.95 1014.80 1014.64 1014.50 1014.43 1014.43 1014.49 1014.59 1014.68 1014.72 1014.68 1014.56 1014.36 1014.14 1013.92 1013.75 1013.64 1013.62 1013.67 1013.78 1013.91 1014.07 1014.21 1014.34 1014.46 1014.56 1014.66 1014.75 1014.84 1014.95
1010.45 1011.59 1012.83 1014.04 1015.10 1015.91 1016.38 1016.52 1016.38 1016.02 1015.58 1015.16 1014.83 1014.64 1014.58 1014.62 1014.70 1014.76 1014.77 1014.71 1014.62 1014.51 1014.44 1014.43 1014.49 1014.60 1014.74 1014.86 1014.93 1014.91 1014.82 1014.66 1014.46 1014.27 1014.11 1014.01 1013.98 1014.00 1014.06 1014.15 1014.25 1014.35 1014.46 1014.58 1014.71 1014.84 1014.98 1015.13 1015.27
1011.27 1012.44 1013.66 1014.79 1015.71 1016.33 1016.62 1016.59 1016.30 1015.84 1015.34 1014.88 1014.55 1014.36 1014.31 1014.35 1014.43 1014.50 1014.52 1014.49 1014.43 1014.37 1014.35 1014.39 1014.50 1014.66 1014.83 1014.97 1015.05 1015.06 1014.99 1014.86 1014.70 1014.55 1014.43 1014.34 1014.30 1014.30 1014.32 1014.37 1014.42 1014.50 1014.60 1014.73 1014.89 1015.08 1015.28 1015.49 1015.69
1012.03 1013.19 1014.32 1015.32 1016.08 1016.53 1016.67 1016.51 1016.13 1015.64 1015.12 1014.69 1014.38 1014.22 1014.19 1014.23 1014.30 1014.35 1014.36 1014.34 1014.29 1014.26 1014.28 1014.36 1014.50 1014.67 1014.85 1015.00 1015.09 1015.10 1015.06 1014.96 1014.84 1014.74 1014.65 1014.60 1014.57 1014.56 1014.56 1014.57 1014.59 1014.65 1014.75 1014.90 1015.10 1015.34 1015.62 1015.89 1016.15
1012.65 1013.73 1014.74 1015.58 1016.17 1016.48 1016.50 1016.27 1015.88 1015.41 1014.96 1014.59 1014.35 1014.24 1014.23 1014.28 1014.33 1014.36 1014.35 1014.31 1014.26 1014.24 1014.27 1014.37 1014.51 1014.68 1014.85 1014.98 1015.05 1015.07 1015.03 1014.96 1014.88 1014.82 1014.79 1014.77 1014.77 1014.76 1014.76 1014.75 1014.75 1014.79 1014.89 1015.06 1015.30 1015.60 1015.93 1016.26 1016.56
1013.08 1014.04 1014.90 1015.57 1016.01 1016.20 1016.15 1015.91 1015.55 1015.17 1014.83 1014.58 1014.43 1014.39 1014.42 1014.47 1014.50 1014.50 1014.47 1014.40 1014.35 1014.32 1014.35 1014.44 1014.58 1014.72 1014.86 1014.95 1014.99 1014.99 1014.94 1014.89 1014.85 1014.84 1014.85 1014.88 1014.90 1014.91 1014.91 1014.89 1014.88 1014.91 1015.01 1015.19 1015.46 1015.79 1016.16 1016.54 1016.87
1013.33 1014.14 1014.83 1015.34 1015.64 1015.74 1015.66 1015.46 1015.19 1014.93 1014.73 1014.61 1014.59 1014.62 1014.69 1014.75 1014.77 1014.75 1014.68 1014.60 1014.53 1014.50 1014.52 1014.59 1014.70 1014.82 1014.91 1014.96 1014.96 1014.92 1014.86 1014.82 1014.80 1014.82 1014.87 1014.93 1014.99 1015.03 1015.03 1015.01 1014.99 1015.01 1015.11 1015.29 1015.56 1015.91 1016.30 1016.69 1017.03
1013.44 1014.10 1014.62 1014.97 1015.17 1015.20 1015.13 1014.98 1014.82 1014.70 1014.65 1014.67 1014.75 1014.86 1014.97 1015.05 1015.06 1015.02 1014.93 1014.84 1014.76 1014.72 1014.74 1014.80 1014.88 1014.97 1015.02 1015.02 1014.98 1014.91 1014.83 1014.78 1014.77 1014.81 1014.89 1014.99 1015.07 1015.12 1015.14 1015.12 1015.10 1015.11 1015.19 1015.36 1015.62 1015.96 1016.35 1016.73 1017.07
1013.50 1014.00 1014.37 1014.60 1014.70 1014.70 1014.63 1014.55 1014.50 1014.50 1014.57 1014.71 1014.88 1015.06 1015.20 1015.29 1015.30 1015.25 1015.16 1015.06 1014.98 1014.95 1014.97 1015.03 1015.10 1015.16 1015.18 1015.15 1015.08 1014.98 1014.88 1014.82 1014.81 1014.86 1014.95 1015.06 1015.16 1015.23 1015.26 1015.25 1015.23 1015.23 1015.29 1015.44 1015.68 1015.99 1016.35 1016.72 1017.04
1013.58 1013.95 1014.19 1014.31 1014.34 1014.31 1014.26 1014.22 1014.24 1014.34 1014.50 1014.71 1014.94 1015.16 1015.33 1015.43 1015.45 1015.40 1015.32 1015.23 1015.17 1015.15 1015.18 1015.24 1015.31 1015.36 1015.37 1015.33 1015.24 1015.13 1015.02 1014.95 1014.93 1014.97 1015.06 1015.18 1015.29 1015.37 1015.41 1015.41 1015.40 1015.40 1015.45 1015.58 1015.79 1016.07 1016.39 1016.72 1017.03
1013.72 1013.99 1014.13 1014.17 1014.14 1014.09 1014.04 1014.03 1014.09 1014.23 1014.43 1014.68 1014.93 1015.17 1015.35 1015.46 1015.49 1015.46 1015.40 1015.33 1015.29 1015.29 1015.34 1015.41 1015.49 1015.55 1015.57 1015.53 1015.45 1015.34 1015.23 1015.15 1015.12 1015.15 1015.23 1015.34 1015.45 1015.54 1015.59 1015.62 1015.62 1015.64 1015.69 1015.80 1015.98 1016.23 1016.52 1016.82 1017.09
1013.95 1014.14 1014.21 1014.20 1014.13 1014.05 1013.99 1013.99 1014.05 1014.18 1014.38 1014.61 1014.86 1015.09 1015.27 1015.39 1015.44 1015.44 1015.41 1015.37 1015.36 1015.38 1015.44 1015.53 1015.63 1015.71 1015.75 1015.74 1015.69 1015.60 1015.50 1015.42 1015.38 1015.39 1015.45 1015.54 1015.65 1015.74 1015.82 1015.87 1015.90 1015.94 1016.01 1016.12 1016.28 1016.50 1016.76 1017.03 1017.29
1014.23 1014.37 1014.40 1014.35 1014.26 1014.16 1014.08 1014.05 1014.08 1014.18 1014.33 1014.52 1014.74 1014.95 1015.13 1015.26 1015.35 1015.39 1015.39 1015.39 1015.40 1015.44 1015.52 1015.62 1015.73 1015.84 1015.91 1015.94 1015.93 1015.87 1015.80 1015.73 1015.68 1015.67 1015.71 1015.78 1015.87 1015.97 1016.06 1016.14 1016.21 1016.29 1016.38 1016.50 1016.67 1016.87 1017.10 1017.35 1017.59
1014.50 1014.61 1014.62 1014.56 1014.46 1014.35 1014.25 1014.18 1014.16 1014.19 1014.28 1014.41 1014.58 1014.77 1014.95 1015.11 1015.24 1015.33 1015.38 1015.42 1015.46 1015.51 1015.59 1015.69 1015.81 1015.94 1016.04 1016.12 1016.16 1016.15 1016.11 1016.06 1016.01 1015.99 1015.99 1016.03 1016.10 1016.20 1016.30 1016.41 1016.53 1016.64 1016.76 1016.91 1017.07 1017.27 1017.48 1017.71 1017.94
1014.72 1014.81 1014.81 1014.76 1014.67 1014.56 1014.44 1014.33 1014.24 1014.19 1014.20 1014.26 1014.38 1014.54 1014.74 1014.94 1015.13 1015.28 1015.40 1015.48 1015.54 1015.59 1015.66 1015.76 1015.88 1016.02 1016.16 1016.28 1016.37 1016.42 1016.43 1016.41 1016.36 1016.32 1016.30 1016.30 1016.35 1016.43 1016.54 1016.67 1016.81 1016.96 1017.11 1017.28 1017.45 1017.64 1017.84 1018.06 1018.27
1014.86 1014.93 1014.95 1014.92 1014.85 1014.74 1014.61 1014.45 1014.29 1014.15 1014.06 1014.05 1014.11 1014.27 1014.48 1014.73 1014.99 1015.22 1015.40 1015.54 1015.62 1015.68 1015.74 1015.82 1015.93 1016.08 1016.25 1016.42 1016.57 1016.68 1016.74 1016.75 1016.72 1016.67 1016.62 1016.59 1016.61 1016.66 1016.76 1016.89 1017.05 1017.22 1017.40 1017.57 1017.75 1017.93 1018.12 1018.32 1018.52
1014.89 1014.97 1015.01 1015.02 1014.99 1014.90 1014.74 1014.53 1014.28 1014.05 1013.86 1013.76 1013.77 1013.90 1014.14 1014.45 1014.79 1015.10 1015.37 1015.56 1015.68 1015.75 1015.80 1015.87 1015.97 1016.12 1016.32 1016.53 1016.75 1016.92 1017.04 1017.09 1017.08 1017.03 1016.96 1016.90 1016.88 1016.90 1016.97 1017.10 1017.25 1017.42 1017.60 1017.78 1017.94 1018.11 1018.28 1018.46 1018.65
1014.86 1014.95 1015.04 1015.10 1015.11 1015.03 1014.85 1014.58 1014.24 1013.88 1013.58 1013.37 1013.31 1013.42 1013.67 1014.04 1014.46 1014.87 1015.22 1015.49 1015.66 1015.75 1015.81 1015.87 1015.97 1016.13 1016.35 1016.61 1016.88 1017.12 1017.30 1017.41 1017.43 1017.38 1017.30 1017.21 1017.15 1017.14 1017.19 1017.28 1017.42 1017.58 1017.75 1017.91 1018.05 1018.20 1018.34 1018.50 1018.66
1014.78 1014.91 1015.07 1015.19 1015.24 1015.17 1014.96 1014.61 1014.16 1013.67 1013.22 1012.90 1012.75 1012.81 1013.06 1013.47 1013.96 1014.47 1014.92 1015.26 1015.50 1015.64 1015.72 1015.79 1015.90 1016.08 1016.32 1016.63 1016.96 1017.26 1017.51 1017.66 1017.72 1017.69 1017.61 1017.51 1017.43 1017.38 1017.40 1017.47 1017.58 1017.72 1017.86 1017.99 1018.11 1018.22 1018.34 1018.46 1018.60
1014.69 1014.89 1015.12 1015.32 1015.41 1015.35 1015.10 1014.66 1014.07 1013.43 1012.82 1012.35 1012.09 1012.08 1012.31 1012.75 1013.30 1013.89 1014.43 1014.87 1015.19 1015.39 1015.51 1015.61 1015.74 1015.95 1016.23 1016.57 1016.95 1017.32 1017.62 1017.83 1017.93 1017.93 1017.86 1017.76 1017.67 1017.61 1017.60 1017.65 1017.74 1017.85 1017.97 1018.07 1018.16 1018.24 1018.32 1018.41 1018.53
1014.60 1014.89 1015.21 1015.48 1015.62 1015.56 1015.25 1014.71 1013.99 1013.18 1012.40 1011.78 1011.39 1011.29 1011.48 1011.91 1012.51 1013.17 1013.80 1014.33 1014.73 1015.01 1015.19 1015.34 1015.51 1015.74 1016.06 1016.44 1016.86 1017.27 1017.62 1017.87 1018.02 1018.05 1018.01 1017.92 1017.84 1017.78 1017.77 1017.81 1017.88 1017.98 1018.08 1018.16 1018.23 1018.27 1018.32 1018.39 1018.48
1014.49 1014.89 1015.31 1015.65 1015.83 1015.76 1015.40 1014.76 1013.90 1012.93 1012.00 1011.21 1010.69 1010.50 1010.63 1011.05 1011.67 1012.38 1013.08 1013.70 1014.18 1014.53 1014.79 1014.99 1015.21 1015.47 1015.82 1016.23 1016.67 1017.11 1017.49 1017.78 1017.96 1018.03 1018.02 1017.96 1017.90 1017.86 1017.86 1017.91 1017.99 1018.09 1018.19 1018.26 1018.31 1018.34 1018.37 1018.41 1018.49
1014.34 1014.85 1015.36 1015.77 1015.97 1015.89 1015.48 1014.76 1013.79 1012.69 1011.61 1010.70 1010.07 1009.78 1009.85 1010.23 1010.85 1011.59 1012.35 1013.03 1013.59 1014.02 1014.34 1014.60 1014.86 1015.16 1015.53 1015.95 1016.41 1016.85 1017.25 1017.55 1017.76 1017.85 1017.88 1017.85 1017.82 1017.82 1017.85 1017.93 1018.04 1018.15 1018.26 1018.33 1018.38 1018.40 1018.42 1018.46 1018.52
1014.11 1014.71 1015.29 1015.75 1015.97 1015.88 1015.43 1014.65 1013.61 1012.42 1011.26 1010.26 1009.54 1009.18 1009.19 1009.54 1010.14 1010.89 1011.67 1012.39 1013.00 1013.49 1013.88 1014.19 1014.49 1014.82 1015.20 1015.62 1016.07 1016.51 1016.90 1017.21 1017.42 1017.53 1017.58 1017.59 1017.61 1017.64 1017.72 1017.84 1017.98 1018.13 1018.25 1018.35 1018.40 1018.43 1018.45 1018.49 1018.55
1013.79 1014.44 1015.06 1015.53 1015.76 1015.66 1015.20 1014.39 1013.32 1012.11 1010.91 1009.88 1009.12 1008.71 1008.68 1008.99 1009.56 1010.29 1011.07 1011.81 1012.45 1012.98 1013.41 1013.77 1014.10 1014.45 1014.84 1015.25 1015.69 1016.11 1016.47 1016.77 1016.97 1017.10 1017.17 1017.22 1017.27 1017.35 1017.47 1017.64 1017.81 1017.99 1018.15 1018.26 1018.34 1018.38 1018.42 1018.46 1018.54
1013.38 1014.03 1014.64 1015.10 1015.31 1015.19 1014.73 1013.93 1012.89 1011.71 1010.54 1009.53 1008.78 1008.37 1008.32 1008.59 1009.11 1009.80 1010.54 1011.27 1011.91 1012.46 1012.91 1013.30 1013.67 1014.04 1014.43 1014.84 1015.26 1015.65 1016.00 1016.28 1016.48 1016.61 1016.70 1016.77 1016.86 1016.98 1017.14 1017.34 1017.55 1017.76 1017.93 1018.07 1018.17 1018.23 1018.28 1018.34 1018.43
1012.89 1013.49 1014.04 1014.44 1014.61 1014.47 1014.02 1013.27 1012.29 1011.20 1010.12 1009.18 1008.49 1008.10 1008.04 1008.27 1008.74 1009.36 1010.04 1010.72 1011.34 1011.88 1012.35 1012.76 1013.15 1013.55 1013.95 1014.37 1014.78 1015.16 1015.50 1015.77 1015.96 1016.11 1016.21 1016.31 1016.43 1016.58 1016.77 1016.99 1017.22 1017.44 1017.64 1017.79 1017.90 1017.98 1018.04 1018.13 1018.25
1012.37 1012.86 1013.30 1013.61 1013.71 1013.54 1013.10 1012.41 1011.53 1010.56 1009.60 1008.78 1008.17 1007.83 1007.76 1007.96 1008.36 1008.90 1009.50 1010.11 1010.68 1011.20 1011.66 1012.10 1012.52 1012.94 1013.38 1013.82 1014.24 1014.64 1014.98 1015.26 1015.47 1015.63 1015.76 1015.89 1016.03 1016.21 1016.42 1016.65 1016.89 1017.11 1017.30 1017.45 1017.57 1017.66 1017.74 1017.85 1017.99
Thickness
5787 5790 5790 5782 5769 5756 5744 5748 5755 5753 5755 5761 5763 5762 5758 5754 5749 5742 5757 5765 5765 5765 5764 5762 5761 5761 5762 5762 5762 5762 5762 5763 5763 5763 5764 5764 5764 5764 5765 5766 5766 5767 5768 5768 5769 5769 5770 5770 5770
5790 5788 5783 5775 5759 5743 5739 5750 5751 5753 5758 5762 5762 5761 5758 5754 5758 5757 5759 5762 5764 5764 5763 5761 5759 5759 5759 5759 5759 5759 5760 5760 5760 5760 5760 5761 5761 5761 5762 5762 5763 5763 5764 5765 5766 5766 5767 5766 5767
5788 5786 5775 5765 5752 5745 5741 5751 5753 5756 5760 5760 5757 5759 5756 5751 5756 5757 5760 5762 5763 5762 5761 5758 5756 5756 5756 5756 5756 5756 5756 5757 5757 5757 5757 5757 5757 5758 5758 5759 5759 5760 5761 5761 5762 5763 5763 5763 5763
5785 5778 5772 5759 5745 5749 5752 5755 5757 5755 5756 5760 5758 5752 5755 5757 5758 5760 5761 5761 5761 5760 5759 5756 5754 5753 5753 5753 5753 5753 5753 5753 5753 5754 5754 5754 5754 5754 5755 5755 5756 5756 5757 5758 5758 5759 5759 5759 5759
5783 5771 5757 5747 5745 5752 5758 5760 5760 5755 5753 5757 5757 5748 5747 5756 5760 5760 5760 5760 5759 5758 5757 5754 5750 5750 5750 5750 5750 5750 5750 5750 5750 5750 5750 5751 5751 5751 5751 5752 5753 5753 5754 5754 5754 5755 5755 5755 5755
5771 5766 5749 5740 5743 5751 5758 5761 5759 5755 5754 5754 5754 5748 5746 5755 5756 5756 5758 5757 5758 5756 5754 5752 5747 5747 5747 5747 5747 5747 5747 5747 5747 5747 5747 5747 5747 5748 5748 5749 5749 5750 5750 5751 5751 5751 5751 5751 5751
5765 5758 5746 5744 5742 5746 5753 5761 5757 5753 5750 5752 5756 5747 5746 5751 5754 5756 5756 5755 5755 5754 5753 5751 5750 5747 5745 5744 5743 5743 5743 5743 5743 5743 5744 5744 5744 5744 5744 5745 5745 5746 5746 5747 5747 5747 5747 5747 5747
5771 5759 5746 5745 5742 5743 5754 5757 5758 5755 5750 5758 5758 5747 5743 5750 5754 5755 5754 5753 5752 5751 5751 5750 5749 5747 5747 5744 5741 5740 5740 5739 5739 5740 5740 5741 5741 5741 5741 5742 5741 5741 5742 5742 5742 5742 5743 5743 5743
5771 5753 5742 5744 5743 5746 5755 5753 5755 5759 5755 5753 5755 5754 5754 5755 5753 5751 5749 5749 5748 5748 5749 5748 5747 5746 5745 5744 5740 5739 5738 5737 5738 5738 5738 5740 5742 5742 5740 5738 5737 5737 5738 5738 5738 5738 5739 5739 5739
5762 5746 5746 5754 5756 5753 5753 5753 5753 5751 5748 5747 5748 5751 5753 5751 5749 5747 5746 5745 5745 5745 5746 5747 5746 5745 5744 5742 5741 5740 5739 5737 5738 5738 5738 5739 5739 5738 5737 5734 5734 5734 5734 5734 5734 5735 5736 5737 5738
5759 5749 5752 5756 5758 5757 5752 5752 5754 5748 5742 5746 5746 5747 5748 5747 5746 5745 5745 5745 5744 5744 5743 5745 5745 5744 5743 5741 5740 5738 5737 5736 5736 5736 5736 5736 5736 5736 5735 5735 5734 5734 5733 5734 5733 5735 5736 5736 5735
5754 5753 5756 5755 5757 5754 5752 5751 5749 5747 5747 5755 5755 5752 5748 5745 5745 5745 5744 5744 5743 5742 5741 5741 5742 5742 5741 5740 5738 5737 5736 5735 5735 5734 5734 5734 5734 5734 5733 5733 5732 5732 5732 5731 5732 5732 5733 5733 5733
5750 5749 5753 5755 5754 5754 5751 5748 5746 5746 5752 5755 5753 5749 5746 5745 5745 5745 5745 5743 5742 5740 5739 5739 5739 5739 5739 5737 5735 5735 5734 5734 5733 5730 5732 5731 5731 5732 5731 5731 5729 5729 5729 5729 5728 5729 5729 5729 5729
5749 5749 5749 5750 5749 5750 5745 5744 5743 5744 5751 5749 5747 5745 5746 5744 5744 5743 5742 5741 5741 5739 5739 5738 5737 5737 5737 5736 5735 5734 5732 5730 5730 5729 5728 5729 5728 5728 5728 5727 5726 5725 5725 5725 5724 5725 5724 5724 5724
5750 5742 5742 5744 5745 5745 5744 5734 5739 5747 5748 5745 5745 5745 5743 5744 5744 5742 5742 5741 5741 5739 5739 5737 5736 5736 5735 5735 5733 5732 5730 5730 5729 5727 5727 5726 5725 5725 5725 5724 5723 5722 5721 5721 5720 5721 5720 5719 5719
5743 5736 5728 5737 5742 5742 5736 5725 5741 5747 5744 5741 5743 5743 5741 5741 5742 5743 5743 5742 5741 5740 5738 5736 5734 5734 5733 5732 5730 5730 5729 5727 5726 5724 5724 5723 5722 5722 5720 5719 5719 5717 5717 5716 5715 5715 5715 5714 5714
5731 5725 5724 5730 5739 5738 5734 5728 5740 5745 5742 5740 5741 5742 5740 5739 5740 5741 5742 5741 5740 5739 5738 5735 5734 5732 5731 5729 5728 5727 5727 5724 5723 5721 5720 5719 5718 5717 5716 5714 5714 5714 5712 5712 5711 5710 5709 5708 5707
5722 5724 5723 5724 5735 5734 5730 5731 5739 5741 5740 5740 5740 5740 5739 5738 5739 5741 5741 5740 5739 5738 5737 5736 5733 5731 5729 5727 5726 5724 5723 5722 5720 5718 5716 5715 5714 5713 5712 5710 5710 5709 5708 5706 5705 5703 5702 5702 5702
5728 5723 5721 5726 5734 5730 5727 5730 5736 5739 5737 5737 5738 5738 5737 5738 5741 5740 5739 5738 5737 5735 5734 5734 5732 5729 5727 5724 5722 5720 5718 5717 5716 5714 5712 5710 5710 5709 5708 5706 5705 5703 5702 5701 5701 5699 5697 5697 5698
5724 5718 5718 5724 5729 5726 5726 5728 5736 5737 5735 5736 5737 5737 5737 5737 5738 5736 5736 5736 5734 5733 5733 5733 5731 5729 5726 5722 5722 5719 5716 5715 5713 5709 5708 5707 5706 5705 5703 5702 5700 5698 5696 5696 5694 5693 5692 5691 5692
5719 5717 5717 5716 5721 5724 5721 5721 5729 5734 5735 5735 5736 5737 5737 5736 5735 5735 5734 5733 5732 5731 5731 5731 5730 5727 5724 5721 5719 5715 5712 5709 5707 5705 5704 5702 5701 5699 5698 5697 5696 5694 5693 5691 5689 5689 5686 5685 5686
5712 5721 5718 5715 5712 5713 5714 5708 5725 5731 5730 5730 5732 5734 5735 5735 5735 5734 5733 5731 5731 5730 5731 5730 5729 5726 5722 5719 5715 5712 5707 5705 5704 5703 5701 5699 5697 5695 5693 5692 5691 5690 5688 5686 5686 5685 5683 5681 5680
5716 5718 5716 5714 5712 5709 5712 5707 5720 5728 5723 5729 5733 5733 5735 5735 5734 5733 5732 5731 5731 5729 5727 5727 5725 5722 5719 5716 5712 5709 5706 5704 5702 5700 5697 5695 5693 5691 5689 5687 5686 5685 5683 5682 5680 5679 5678 5678 5676
5715 5712 5710 5710 5709 5696 5708 5704 5708 5722 5724 5729 5733 5734 5734 5734 5734 5733 5732 5730 5728 5726 5723 5722 5720 5717 5715 5712 5710 5707 5703 5700 5698 5695 5693 5691 5689 5687 5685 5683 5681 5681 5679 5678 5676 5675 5673 5672 5671
5710 5702 5692 5690 5691 5696 5708 5702 5709 5725 5729 5730 5730 5732 5732 5733 5732 5730 5728 5726 5724 5722 5720 5719 5716 5713 5711 5709 5708 5706 5703 5700 5696 5693 5690 5688 5686 5683 5681 5679 5678 5677 5675 5673 5672 5670 5669 5669 5667
5705 5703 5689 5681 5686 5697 5701 5700 5715 5726 5728 5729 5730 5731 5730 5730 5730 5728 5727 5725 5723 5720 5718 5717 5714 5711 5709 5707 5705 5703 5701 5697 5694 5691 5689 5685 5683 5681 5679 5676 5675 5673 5671 5669 5668 5667 5665 5665 5663
5700 5700 5706 5696 5693 5689 5698 5707 5716 5723 5723 5724 5724 5725 5726 5726 5726 5725 5724 5723 5721 5718 5716 5714 5712 5709 5706 5704 5702 5699 5697 5694 5690 5688 5686 5683 5681 5678 5676 5673 5671 5669 5666 5665 5664 5662 5661 5660 5660
5704 5703 5696 5688 5678 5679 5689 5698 5706 5711 5714 5718 5720 5720 5722 5724 5723 5723 5721 5719 5718 5716 5713 5711 5710 5707 5704 5701 5698 5695 5693 5691 5687 5685 5682 5680 5678 5674 5672 5670 5668 5665 5663 5661 5659 5658 5656 5656 5654
5690 5690 5691 5691 5688 5679 5679 5695 5714 5714 5715 5715 5717 5719 5719 5719 5719 5719 5718 5716 5714 5712 5709 5708 5706 5703 5700 5697 5694 5691 5689 5687 5684 5681 5678 5676 5674 5671 5668 5666 5664 5662 5660 5658 5655 5654 5652 5652 5651
5693 5692 5690 5680 5681 5683 5681 5692 5716 5714 5714 5712 5712 5713 5715 5714 5714 5713 5713 5711 5709 5707 5705 5704 5702 5699 5696 5693 5690 5687 5685 5682 5680 5677 5674 5672 5669 5667 5664 5662 5660 5658 5656 5655 5653 5650 5648 5647 5646